COSMOS 1275 DEB, 39937

Orbit data source: Space-Track

COSMOS 1275 DEB, 39937 is space debris in LEO originally from a launch on Thu, 04 Jun 1981 UTC launched from the Plesetsk Missile And Space Complex (PKMTR). Debris objects in space refer to the collection of defunct objects orbiting the Earth. Examples of debris include non-operational satellites, rocket bodies, and fragments generated from explosions, collisions, or faulty payload assembly.

Loading next visibility...
Identifier
39937, 1981-053MX
Orbit
LEO
Country
Flag of CISCIS
Related business
Manufacturer
Unknown
Mission
Spacecraft
Bus & Motor
Unknown
Mass
Unknown
Launch date (UTC)
1981-06-04 (44 years ago)
Launch vehicle
Unknown
Launch site
Plesetsk Missile And Space Complex (PKMTR)
Object type
Payload
Rocket body
Debris
Shape & HBR
Unknown shape, 0.1 m
Radar Cross Section
Small (<0.1 m²)

Expand to show TLE details & history
Last TLE update: 18 hours ago

TLE from 18 hours ago
0 COSMOS 1275 DEB
1 39937U 81053MX  25288.77132398  .00001862  00000-0  15299-2 0  9998
2 39937  82.8839 306.5600 0069828  88.6425 272.2737 13.87669146600778
Epoch: 2025-10-15T18:30Z
TLE epoch observation values (Epoch: 2025-10-15T18:30:42.391Z)
Latitude
0.00004°
Longitude
4.34276°
Altitude
938.056 km
Speed
7.384 km/s
True Right ascension
20h 26m 14s
True Declination
0° 00' 00"
Sunlit
Object was in daylight at epoch
Visualization orbit readout
Latitude
Unknown
Longitude
Unknown
Altitude
Unknown
Speed
Unknown
Apparent Right ascension
Unknown
Apparent Declination
Unknown
Sunlit
N/A
Visualization observer readout
Local Sidereal Time
07:33:08
Azimuth
Unknown
Elevation
Unknown
Doppler factor
Unknown
Orbital elements
Apogee altitude
985.003 km
Perigee altitude
882.885 km
Semi-major axis
7,312.081 km
Eccentricity
0.00698
Inclination
82.8839°
RAAN
306.56°
Arg. of periapsis
88.6425°
True anomaly
271.47391°
Mean anomaly
272.2737°
Eccentric anomaly
271.87383°
Mean motion
3.47122 °/min
Orbital period
103.71 mins
BSTAR
0.0015299
Loading maneuver chart data...
Computing Atmospheric mass density...

Documentation

Showing up to 5 results
|